Time,TemperatureF,DewpointF,PressureIn,WindDirection,WindDirectionDegrees,WindSpeedMPH,WindSpeedGustMPH,Humidity,HourlyPrecipIn,Conditions,Clouds,dailyrainin,SoftwareType,DateUTC
2013-11-21 00:03:00,38.1,35.7,30.06,SE,135,0.7,0.7,91,0.00,,,0.23,WUHU21623XXSP,2013-11-21 06:03:00,
2013-11-21 00:08:00,38.1,35.7,30.06,SE,135,0.0,0.7,91,0.00,,,0.00,WUHU21623XXSP,2013-11-21 06:08:00,
2013-11-21 00:13:00,38.3,35.9,30.06,SE,135,0.0,0.7,91,0.00,,,0.00,WUHU21623XXSP,2013-11-21 06:13:00,
2013-11-21 00:18:00,38.3,35.9,30.06,SE,135,0.0,0.0,91,0.00,,,0.00,WUHU21623XXSP,2013-11-21 06:18:00,
2013-11-21 00:23:00,38.3,35.9,30.06,SSE,157,0.0,0.4,91,0.00,,,0.00,WUHU21623XXSP,2013-11-21 06:23:00,
2013-11-21 00:28:00,38.3,35.9,30.06,SE,135,2.0,2.0,91,0.00,,,0.00,WUHU21623XXSP,2013-11-21 06:28:00,
2013-11-21 00:33:00,38.3,35.9,30.07,SE,135,0.0,2.0,91,0.00,,,0.00,WUHU21623XXSP,2013-11-21 06:33:00,
2013-11-21 00:38:00,38.3,35.9,30.06,SSE,157,0.0,0.0,91,0.00,,,0.00,WUHU21623XXSP,2013-11-21 06:38:00,
2013-11-21 00:43:00,38.3,35.9,30.06,SE,135,0.0,0.0,91,0.00,,,0.00,WUHU21623XXSP,2013-11-21 06:43:00,
2013-11-21 00:48:00,38.3,35.9,30.06,SE,135,0.0,1.1,91,0.00,,,0.00,WUHU21623XXSP,2013-11-21 06:48:00,
2013-11-21 00:53:00,38.5,36.0,30.06,SE,135,0.0,1.1,91,0.00,,,0.00,WUHU21623XXSP,2013-11-21 06:53:00,
2013-11-21 00:58:00,38.3,35.9,30.06,SE,135,1.8,1.8,91,0.00,,,0.00,WUHU21623XXSP,2013-11-21 06:58:00,
2013-11-21 01:03:00,38.5,36.0,30.06,SE,135,0.7,1.8,91,0.00,,,0.00,WUHU21623XXSP,2013-11-21 07:03:00,
2013-11-21 01:08:00,38.7,36.2,30.06,SE,135,0.0,0.7,91,0.00,,,0.00,WUHU21623XXSP,2013-11-21 07:08:00,
2013-11-21 01:13:00,38.7,36.2,30.06,SE,135,0.9,0.9,91,0.00,,,0.00,WUHU21623XXSP,2013-11-21 07:13:00,
2013-11-21 01:18:00,38.7,36.2,30.06,SE,135,0.0,0.9,91,0.00,,,0.00,WUHU21623XXSP,2013-11-21 07:18:00,
2013-11-21 01:23:00,38.7,36.2,30.06,SE,135,0.0,0.7,91,0.00,,,0.00,WUHU21623XXSP,2013-11-21 07:23:00,
2013-11-21 01:28:00,38.7,36.2,30.05,ESE,112,0.0,0.0,91,0.00,,,0.00,WUHU21623XXSP,2013-11-21 07:28:00,
2013-11-21 01:33:00,38.7,36.2,30.06,SE,135,0.2,0.7,91,0.00,,,0.00,WUHU21623XXSP,2013-11-21 07:33:00,
2013-11-21 01:38:00,38.7,36.2,30.06,SSE,157,0.0,0.7,91,0.00,,,0.00,WUHU21623XXSP,2013-11-21 07:38:00,
2013-11-21 01:43:00,38.7,36.2,30.06,SE,135,0.0,0.0,91,0.00,,,0.00,WUHU21623XXSP,2013-11-21 07:43:00,
2013-11-21 01:48:00,38.8,36.4,30.06,SE,135,0.0,0.0,91,0.00,,,0.00,WUHU21623XXSP,2013-11-21 07:48:00,
2013-11-21 01:53:00,38.8,36.4,30.06,SE,135,0.4,0.7,91,0.00,,,0.00,WUHU21623XXSP,2013-11-21 07:53:00,
2013-11-21 01:58:00,38.7,36.2,30.06,SE,135,0.0,2.2,91,0.00,,,0.00,WUHU21623XXSP,2013-11-21 07:58:00,
2013-11-21 02:03:00,38.8,36.4,30.06,SE,135,0.0,2.2,91,0.00,,,0.00,WUHU21623XXSP,2013-11-21 08:03:00,
2013-11-21 02:08:00,38.8,36.4,30.06,SE,135,2.0,2.0,91,0.00,,,0.00,WUHU21623XXSP,2013-11-21 08:08:00,
2013-11-21 02:13:00,39.0,36.6,30.06,SSE,157,0.0,2.0,91,0.00,,,0.00,WUHU21623XXSP,2013-11-21 08:13:00,
2013-11-21 02:18:00,38.8,36.4,30.06,SE,135,0.0,0.0,91,0.00,,,0.00,WUHU21623XXSP,2013-11-21 08:18:00,
2013-11-21 02:23:00,39.0,36.6,30.05,SE,135,0.0,0.7,91,0.00,,,0.00,WUHU21623XXSP,2013-11-21 08:23:00,
2013-11-21 02:28:00,39.2,36.5,30.06,SE,135,1.3,1.3,90,0.00,,,0.00,WUHU21623XXSP,2013-11-21 08:28:00,
2013-11-21 02:33:00,39.2,36.5,30.05,SE,135,0.0,1.3,90,0.00,,,0.00,WUHU21623XXSP,2013-11-21 08:33:00,
2013-11-21 02:38:00,39.4,36.7,30.06,ESE,112,0.0,0.7,90,0.00,,,0.00,WUHU21623XXSP,2013-11-21 08:38:00,
2013-11-21 02:43:00,39.2,36.5,30.06,SE,135,0.7,0.7,90,0.00,,,0.00,WUHU21623XXSP,2013-11-21 08:43:00,
2013-11-21 02:48:00,39.4,36.7,30.05,SE,135,2.0,2.0,90,0.00,,,0.00,WUHU21623XXSP,2013-11-21 08:48:00,
2013-11-21 02:53:00,39.4,36.7,30.06,SE,135,0.2,2.0,90,0.00,,,0.00,WUHU21623XXSP,2013-11-21 08:53:00,
2013-11-21 02:58:00,39.4,36.7,30.05,SE,135,1.3,2.0,90,0.00,,,0.00,WUHU21623XXSP,2013-11-21 08:58:00,
2013-11-21 03:03:00,39.4,36.7,30.05,SE,135,0.0,1.3,90,0.00,,,0.00,WUHU21623XXSP,2013-11-21 09:03:00,
2013-11-21 03:08:00,39.6,36.9,30.05,SE,135,1.1,1.1,90,0.00,,,0.00,WUHU21623XXSP,2013-11-21 09:08:00,
2013-11-21 03:13:00,39.6,36.9,30.05,SE,135,1.3,1.3,90,0.00,,,0.00,WUHU21623XXSP,2013-11-21 09:13:00,
2013-11-21 03:18:00,39.7,37.0,30.05,SE,135,1.1,1.3,90,0.00,,,0.00,WUHU21623XXSP,2013-11-21 09:18:00,
2013-11-21 03:23:00,39.7,37.0,30.05,SE,135,0.0,1.1,90,0.00,,,0.00,WUHU21623XXSP,2013-11-21 09:23:00,
2013-11-21 03:28:00,39.6,36.9,30.05,SE,135,1.1,1.1,90,0.00,,,0.00,WUHU21623XXSP,2013-11-21 09:28:00,
2013-11-21 03:33:00,39.7,36.7,30.05,SE,135,0.0,2.2,89,0.00,,,0.00,WUHU21623XXSP,2013-11-21 09:33:00,
2013-11-21 03:38:00,39.7,36.7,30.05,SSE,157,0.0,2.2,89,0.00,,,0.00,WUHU21623XXSP,2013-11-21 09:38:00,
2013-11-21 03:43:00,39.7,36.7,30.05,SE,135,0.0,0.0,89,0.00,,,0.00,WUHU21623XXSP,2013-11-21 09:43:00,
2013-11-21 03:48:00,39.7,36.7,30.05,SE,135,0.0,0.0,89,0.00,,,0.00,WUHU21623XXSP,2013-11-21 09:48:00,
2013-11-21 03:53:00,39.9,36.9,30.05,SE,135,0.0,0.0,89,0.00,,,0.00,WUHU21623XXSP,2013-11-21 09:53:00,
2013-11-21 03:58:00,39.9,36.9,30.05,SE,135,0.0,0.0,89,0.00,,,0.00,WUHU21623XXSP,2013-11-21 09:58:00,
2013-11-21 04:03:00,39.9,36.9,30.05,SE,135,0.0,0.0,89,0.00,,,0.00,WUHU21623XXSP,2013-11-21 10:03:00,
2013-11-21 04:08:00,39.9,36.9,30.05,SE,135,0.0,0.0,89,0.00,,,0.00,WUHU21623XXSP,2013-11-21 10:08:00,
2013-11-21 04:13:00,39.9,36.9,30.05,SE,135,0.0,0.0,89,0.00,,,0.00,WUHU21623XXSP,2013-11-21 10:13:00,
2013-11-21 04:18:00,39.9,36.9,30.05,SE,135,0.0,0.0,89,0.00,,,0.00,WUHU21623XXSP,2013-11-21 10:18:00,
2013-11-21 04:23:00,39.9,36.9,30.05,SE,135,0.0,0.0,89,0.00,,,0.00,WUHU21623XXSP,2013-11-21 10:23:00,
2013-11-21 04:28:00,39.9,36.9,30.05,SE,135,0.0,0.0,89,0.00,,,0.00,WUHU21623XXSP,2013-11-21 10:28:00,
2013-11-21 04:33:00,39.9,36.9,30.05,SE,135,0.0,0.0,89,0.00,,,0.00,WUHU21623XXSP,2013-11-21 10:33:00,
2013-11-21 04:38:00,39.9,36.9,30.06,SE,135,0.0,0.0,89,0.00,,,0.00,WUHU21623XXSP,2013-11-21 10:38:00,
2013-11-21 04:43:00,39.9,36.9,30.06,SSE,157,0.0,0.0,89,0.00,,,0.00,WUHU21623XXSP,2013-11-21 10:43:00,
2013-11-21 04:48:00,39.9,36.9,30.06,SSE,157,0.0,0.0,89,0.00,,,0.00,WUHU21623XXSP,2013-11-21 10:48:00,
2013-11-21 04:53:00,39.9,36.9,30.06,SE,135,0.0,0.0,89,0.00,,,0.00,WUHU21623XXSP,2013-11-21 10:53:00,
2013-11-21 04:58:00,40.1,37.1,30.06,SE,135,0.0,0.0,89,0.00,,,0.00,WUHU21623XXSP,2013-11-21 10:58:00,
2013-11-21 05:03:00,40.1,37.1,30.06,SE,135,0.0,0.0,89,0.00,,,0.00,WUHU21623XXSP,2013-11-21 11:03:00,
2013-11-21 05:08:00,40.1,37.1,30.06,SE,135,0.0,0.0,89,0.00,,,0.00,WUHU21623XXSP,2013-11-21 11:08:00,
2013-11-21 05:13:00,40.1,37.1,30.06,SSE,157,0.0,0.0,89,0.00,,,0.00,WUHU21623XXSP,2013-11-21 11:13:00,
2013-11-21 05:18:00,40.1,36.8,30.06,SE,135,0.0,0.4,88,0.00,,,0.00,WUHU21623XXSP,2013-11-21 11:18:00,
2013-11-21 05:23:00,40.1,36.8,30.06,SE,135,0.0,0.4,88,0.00,,,0.00,WUHU21623XXSP,2013-11-21 11:23:00,
2013-11-21 05:28:00,40.1,36.8,30.07,SE,135,0.0,0.0,88,0.00,,,0.00,WUHU21623XXSP,2013-11-21 11:28:00,
2013-11-21 05:33:00,40.1,36.8,30.06,SE,135,0.0,0.0,88,0.00,,,0.00,WUHU21623XXSP,2013-11-21 11:33:00,
2013-11-21 05:38:00,40.1,36.8,30.06,SE,135,0.0,0.0,88,0.00,,,0.00,WUHU21623XXSP,2013-11-21 11:38:00,
2013-11-21 05:43:00,40.1,36.8,30.06,SE,135,0.0,0.0,88,0.00,,,0.00,WUHU21623XXSP,2013-11-21 11:43:00,
2013-11-21 05:48:00,40.1,36.8,30.06,SE,135,0.0,0.0,88,0.00,,,0.00,WUHU21623XXSP,2013-11-21 11:48:00,
2013-11-21 05:53:00,40.1,36.8,30.07,SE,135,0.0,0.0,88,0.00,,,0.00,WUHU21623XXSP,2013-11-21 11:53:00,
2013-11-21 05:58:00,40.3,37.0,30.07,SE,135,0.0,0.0,88,0.00,,,0.00,WUHU21623XXSP,2013-11-21 11:58:00,
2013-11-21 06:03:00,40.1,36.8,30.07,SE,135,0.0,0.0,88,0.00,,,0.00,WUHU21623XXSP,2013-11-21 12:03:00,
2013-11-21 06:08:00,40.1,36.8,30.07,SE,135,0.0,1.1,88,0.00,,,0.00,WUHU21623XXSP,2013-11-21 12:08:00,
2013-11-21 06:13:00,40.3,37.0,30.07,SE,135,0.0,1.1,88,0.00,,,0.00,WUHU21623XXSP,2013-11-21 12:13:00,
2013-11-21 06:18:00,40.3,37.0,30.07,SE,135,0.0,0.0,88,0.00,,,0.00,WUHU21623XXSP,2013-11-21 12:18:00,
2013-11-21 06:23:00,40.3,37.0,30.07,SE,135,0.0,0.0,88,0.00,,,0.00,WUHU21623XXSP,2013-11-21 12:23:00,
2013-11-21 06:28:00,40.3,37.0,30.07,SE,135,0.0,0.0,88,0.00,,,0.00,WUHU21623XXSP,2013-11-21 12:28:00,
2013-11-21 06:33:00,40.1,36.8,30.07,SE,135,0.0,0.0,88,0.00,,,0.00,WUHU21623XXSP,2013-11-21 12:33:00,
2013-11-21 06:38:00,40.1,36.8,30.08,SE,135,0.0,0.0,88,0.00,,,0.00,WUHU21623XXSP,2013-11-21 12:38:00,
2013-11-21 06:43:00,40.1,36.8,30.08,SE,135,0.0,0.0,88,0.00,,,0.00,WUHU21623XXSP,2013-11-21 12:43:00,
2013-11-21 06:48:00,40.1,36.8,30.08,SE,135,0.0,0.0,88,0.00,,,0.00,WUHU21623XXSP,2013-11-21 12:48:00,
2013-11-21 06:53:00,40.1,36.8,30.08,SE,135,0.0,0.0,88,0.00,,,0.00,WUHU21623XXSP,2013-11-21 12:53:00,
2013-11-21 06:58:00,40.1,36.8,30.08,SE,135,0.0,0.0,88,0.00,,,0.00,WUHU21623XXSP,2013-11-21 12:58:00,
2013-11-21 07:03:00,40.1,36.5,30.08,SE,135,0.0,0.0,87,0.00,,,0.00,WUHU21623XXSP,2013-11-21 13:03:00,
2013-11-21 07:08:00,40.1,36.5,30.09,SE,135,0.0,0.0,87,0.00,,,0.00,WUHU21623XXSP,2013-11-21 13:08:00,
2013-11-21 07:13:00,40.1,36.5,30.09,SE,135,0.0,0.0,87,0.00,,,0.00,WUHU21623XXSP,2013-11-21 13:13:00,
2013-11-21 07:18:00,39.9,36.3,30.09,SE,135,0.0,0.0,87,0.00,,,0.00,WUHU21623XXSP,2013-11-21 13:18:00,
2013-11-21 07:23:00,40.1,36.5,30.09,SE,135,0.0,0.0,87,0.00,,,0.00,WUHU21623XXSP,2013-11-21 13:23:00,
2013-11-21 07:28:00,40.1,36.5,30.09,SE,135,0.0,0.0,87,0.00,,,0.00,WUHU21623XXSP,2013-11-21 13:28:00,
2013-11-21 07:33:00,39.9,36.3,30.09,SE,135,0.0,0.0,87,0.00,,,0.00,WUHU21623XXSP,2013-11-21 13:33:00,
2013-11-21 07:38:00,40.1,36.5,30.09,SE,135,0.0,0.0,87,0.00,,,0.00,WUHU21623XXSP,2013-11-21 13:38:00,
2013-11-21 07:43:00,40.1,36.5,30.09,SE,135,0.0,0.0,87,0.00,,,0.00,WUHU21623XXSP,2013-11-21 13:43:00,
2013-11-21 07:48:00,40.1,36.5,30.09,SSE,157,0.0,0.0,87,0.00,,,0.00,WUHU21623XXSP,2013-11-21 13:48:00,
2013-11-21 07:53:00,40.1,36.5,30.09,SSE,157,0.0,0.0,87,0.00,,,0.00,WUHU21623XXSP,2013-11-21 13:53:00,
2013-11-21 07:58:00,40.3,36.7,30.09,SSE,157,0.0,0.0,87,0.00,,,0.00,WUHU21623XXSP,2013-11-21 13:58:00,
2013-11-21 08:03:00,40.3,36.7,30.09,SSE,157,0.0,0.0,87,0.00,,,0.00,WUHU21623XXSP,2013-11-21 14:03:00,
2013-11-21 08:08:00,40.6,37.3,30.09,SSE,157,0.0,0.0,88,0.00,,,0.00,WUHU21623XXSP,2013-11-21 14:08:00,
2013-11-21 08:13:00,40.6,37.3,30.09,SSE,157,0.0,0.0,88,0.00,,,0.00,WUHU21623XXSP,2013-11-21 14:13:00,
2013-11-21 08:18:00,41.0,37.7,30.09,SSE,157,0.0,0.0,88,0.00,,,0.00,WUHU21623XXSP,2013-11-21 14:18:00,
2013-11-21 08:23:00,41.2,37.9,30.09,SSE,157,0.0,0.0,88,0.00,,,0.00,WUHU21623XXSP,2013-11-21 14:23:00,
2013-11-21 08:28:00,41.5,38.2,30.10,SSE,157,0.0,0.0,88,0.00,,,0.00,WUHU21623XXSP,2013-11-21 14:28:00,
2013-11-21 08:33:00,41.9,38.6,30.10,SSE,157,0.0,0.0,88,0.00,,,0.00,WUHU21623XXSP,2013-11-21 14:33:00,
2013-11-21 08:38:00,43.0,39.7,30.09,SSE,157,0.0,0.0,88,0.00,,,0.00,WUHU21623XXSP,2013-11-21 14:38:00,
2013-11-21 08:43:00,43.2,39.8,30.09,ESE,112,0.0,0.0,88,0.00,,,0.00,WUHU21623XXSP,2013-11-21 14:43:00,
2013-11-21 08:48:00,43.5,39.9,30.09,ESE,112,0.0,0.0,87,0.00,,,0.00,WUHU21623XXSP,2013-11-21 14:48:00,
2013-11-21 08:53:00,43.5,39.6,30.10,ESE,112,0.0,0.0,86,0.00,,,0.00,WUHU21623XXSP,2013-11-21 14:53:00,
2013-11-21 08:58:00,43.7,39.5,30.10,ESE,112,0.0,0.0,85,0.00,,,0.00,WUHU21623XXSP,2013-11-21 14:58:00,
2013-11-21 09:03:00,44.1,39.8,30.10,ESE,112,0.0,0.0,85,0.00,,,0.00,WUHU21623XXSP,2013-11-21 15:03:00,
2013-11-21 09:08:00,44.2,39.7,30.11,ESE,112,0.0,0.0,84,0.00,,,0.00,WUHU21623XXSP,2013-11-21 15:08:00,
2013-11-21 09:13:00,44.2,39.7,30.11,ESE,112,0.0,0.0,84,0.00,,,0.00,WUHU21623XXSP,2013-11-21 15:13:00,
2013-11-21 09:18:00,44.2,39.4,30.12,SSE,157,0.0,0.0,83,0.00,,,0.00,WUHU21623XXSP,2013-11-21 15:18:00,
2013-11-21 09:23:00,44.2,39.4,30.12,SSE,157,0.0,0.0,83,0.00,,,0.00,WUHU21623XXSP,2013-11-21 15:23:00,
2013-11-21 09:28:00,44.4,39.6,30.12,SSE,157,0.0,0.0,83,0.00,,,0.00,WUHU21623XXSP,2013-11-21 15:28:00,
2013-11-21 09:33:00,44.4,39.6,30.12,SSE,157,0.0,0.0,83,0.00,,,0.00,WUHU21623XXSP,2013-11-21 15:33:00,
2013-11-21 09:38:00,44.6,39.5,30.12,SSE,157,0.0,0.0,82,0.00,,,0.00,WUHU21623XXSP,2013-11-21 15:38:00,
2013-11-21 09:43:00,44.8,39.6,30.12,SSE,157,0.0,0.0,82,0.00,,,0.00,WUHU21623XXSP,2013-11-21 15:43:00,
2013-11-21 09:48:00,44.8,39.6,30.12,SSE,157,0.0,0.0,82,0.00,,,0.00,WUHU21623XXSP,2013-11-21 15:48:00,
2013-11-21 09:53:00,45.0,39.8,30.12,SSE,157,0.0,0.0,82,0.00,,,0.00,WUHU21623XXSP,2013-11-21 15:53:00,
2013-11-21 09:58:00,45.0,39.8,30.12,SSE,157,0.0,0.0,82,0.00,,,0.00,WUHU21623XXSP,2013-11-21 15:58:00,
2013-11-21 10:03:00,45.0,39.5,30.13,SSE,157,0.0,0.0,81,0.00,,,0.00,WUHU21623XXSP,2013-11-21 16:03:00,
2013-11-21 10:08:00,45.0,39.5,30.13,SSE,157,0.0,0.0,81,0.00,,,0.00,WUHU21623XXSP,2013-11-21 16:08:00,
2013-11-21 10:13:00,44.8,39.3,30.14,South,180,0.0,1.3,81,0.00,,,0.00,WUHU21623XXSP,2013-11-21 16:13:00,
2013-11-21 10:18:00,44.8,39.3,30.14,South,180,0.0,1.3,81,0.00,,,0.00,WUHU21623XXSP,2013-11-21 16:18:00,
2013-11-21 10:23:00,44.8,39.3,30.14,South,180,0.0,0.0,81,0.00,,,0.00,WUHU21623XXSP,2013-11-21 16:23:00,
2013-11-21 10:28:00,44.8,39.3,30.13,South,180,0.0,0.0,81,0.00,,,0.00,WUHU21623XXSP,2013-11-21 16:28:00,
2013-11-21 10:33:00,44.8,39.3,30.13,South,180,0.0,0.0,81,0.00,,,0.00,WUHU21623XXSP,2013-11-21 16:33:00,
2013-11-21 10:38:00,44.8,39.3,30.12,South,180,0.0,0.0,81,0.00,,,0.00,WUHU21623XXSP,2013-11-21 16:38:00,
2013-11-21 10:43:00,45.0,39.5,30.12,SSW,202,0.0,0.0,81,0.00,,,0.00,WUHU21623XXSP,2013-11-21 16:43:00,
2013-11-21 10:48:00,45.1,39.7,30.12,SW,225,0.0,0.0,81,0.00,,,0.00,WUHU21623XXSP,2013-11-21 16:48:00,
2013-11-21 10:53:00,45.1,39.7,30.12,SW,225,0.0,0.0,81,0.00,,,0.00,WUHU21623XXSP,2013-11-21 16:53:00,
2013-11-21 10:58:00,45.1,39.7,30.12,SW,225,0.0,0.0,81,0.00,,,0.00,WUHU21623XXSP,2013-11-21 16:58:00,
2013-11-21 11:03:00,45.1,39.7,30.12,WSW,247,0.0,0.0,81,0.00,,,0.00,WUHU21623XXSP,2013-11-21 17:03:00,
2013-11-21 11:08:00,45.1,39.7,30.12,West,270,0.0,0.0,81,0.00,,,0.00,WUHU21623XXSP,2013-11-21 17:08:00,
2013-11-21 11:13:00,45.5,40.0,30.13,NNW,337,0.0,0.0,81,0.00,,,0.00,WUHU21623XXSP,2013-11-21 17:13:00,
2013-11-21 11:18:00,45.5,40.0,30.12,NNW,337,0.7,0.7,81,0.00,,,0.00,WUHU21623XXSP,2013-11-21 17:18:00,
2013-11-21 11:23:00,45.5,40.0,30.12,North,0,0.0,0.7,81,0.00,,,0.00,WUHU21623XXSP,2013-11-21 17:23:00,
2013-11-21 11:28:00,45.5,40.0,30.11,North,0,3.4,3.4,81,0.00,,,0.00,WUHU21623XXSP,2013-11-21 17:28:00,
2013-11-21 11:33:00,45.9,40.4,30.11,NNE,22,2.0,3.4,81,0.00,,,0.00,WUHU21623XXSP,2013-11-21 17:33:00,
2013-11-21 11:38:00,45.9,40.4,30.12,North,0,0.0,2.5,81,0.00,,,0.00,WUHU21623XXSP,2013-11-21 17:38:00,
2013-11-21 11:43:00,45.9,40.1,30.11,NNE,22,1.3,2.5,80,0.00,,,0.00,WUHU21623XXSP,2013-11-21 17:43:00,
2013-11-21 11:48:00,45.9,40.1,30.12,North,0,0.0,1.3,80,0.00,,,0.00,WUHU21623XXSP,2013-11-21 17:48:00,
2013-11-21 11:53:00,45.9,39.8,30.11,NNW,337,1.1,1.1,79,0.00,,,0.00,WUHU21623XXSP,2013-11-21 17:53:00,
2013-11-21 11:58:00,45.7,39.6,30.12,NW,315,0.9,3.6,79,0.00,,,0.00,WUHU21623XXSP,2013-11-21 17:58:00,
2013-11-21 12:03:00,45.7,39.6,30.12,NNE,22,0.0,3.6,79,0.00,,,0.00,WUHU21623XXSP,2013-11-21 18:03:00,
2013-11-21 12:08:00,45.9,39.8,30.12,NNE,22,2.0,2.0,79,0.00,,,0.00,WUHU21623XXSP,2013-11-21 18:08:00,
2013-11-21 12:13:00,45.9,39.8,30.12,North,0,0.7,2.0,79,0.00,,,0.00,WUHU21623XXSP,2013-11-21 18:13:00,
2013-11-21 12:18:00,45.7,39.6,30.12,NNW,337,0.0,1.6,79,0.00,,,0.00,WUHU21623XXSP,2013-11-21 18:18:00,
2013-11-21 12:23:00,45.9,39.8,30.12,NNE,22,0.0,1.1,79,0.00,,,0.00,WUHU21623XXSP,2013-11-21 18:23:00,
2013-11-21 12:28:00,45.7,39.2,30.12,NNW,337,0.0,1.1,78,0.00,,,0.00,WUHU21623XXSP,2013-11-21 18:28:00,
2013-11-21 12:33:00,45.7,39.2,30.12,North,0,0.0,0.0,78,0.00,,,0.00,WUHU21623XXSP,2013-11-21 18:33:00,
2013-11-21 12:38:00,45.5,39.1,30.12,NNE,22,0.4,1.3,78,0.00,,,0.00,WUHU21623XXSP,2013-11-21 18:38:00,
2013-11-21 12:43:00,45.5,39.1,30.12,NE,45,0.0,1.3,78,0.00,,,0.00,WUHU21623XXSP,2013-11-21 18:43:00,
2013-11-21 12:48:00,45.5,39.1,30.12,NNW,337,0.0,0.0,78,0.00,,,0.00,WUHU21623XXSP,2013-11-21 18:48:00,
2013-11-21 12:53:00,45.5,39.1,30.11,NNE,22,0.0,1.3,78,0.00,,,0.00,WUHU21623XXSP,2013-11-21 18:53:00,
2013-11-21 12:58:00,45.3,38.9,30.11,NNE,22,1.8,1.8,78,0.00,,,0.00,WUHU21623XXSP,2013-11-21 18:58:00,
2013-11-21 13:03:00,45.3,38.9,30.12,NNE,22,0.0,1.8,78,0.00,,,0.00,WUHU21623XXSP,2013-11-21 19:03:00,
2013-11-21 13:08:00,45.3,38.9,30.11,North,0,0.0,0.0,78,0.00,,,0.00,WUHU21623XXSP,2013-11-21 19:08:00,
2013-11-21 13:13:00,45.1,38.7,30.11,North,0,2.9,2.9,78,0.00,,,0.00,WUHU21623XXSP,2013-11-21 19:13:00,
2013-11-21 13:18:00,45.1,39.0,30.10,NNE,22,2.5,2.9,79,0.00,,,0.00,WUHU21623XXSP,2013-11-21 19:18:00,
2013-11-21 13:23:00,45.3,39.2,30.10,North,0,1.3,2.5,79,0.00,,,0.00,WUHU21623XXSP,2013-11-21 19:23:00,
2013-11-21 13:28:00,45.1,39.0,30.10,NNE,22,0.0,2.9,79,0.00,,,0.00,WUHU21623XXSP,2013-11-21 19:28:00,
2013-11-21 13:33:00,45.1,39.0,30.10,NNE,22,1.3,2.9,79,0.00,,,0.00,WUHU21623XXSP,2013-11-21 19:33:00,
2013-11-21 13:38:00,45.3,39.2,30.10,NE,45,1.6,1.8,79,0.00,,,0.00,WUHU21623XXSP,2013-11-21 19:38:00,
2013-11-21 13:43:00,45.1,39.0,30.10,NNE,22,0.9,2.5,79,0.00,,,0.00,WUHU21623XXSP,2013-11-21 19:43:00,
2013-11-21 13:48:00,45.3,39.2,30.09,NNE,22,0.0,2.5,79,0.00,,,0.00,WUHU21623XXSP,2013-11-21 19:48:00,
2013-11-21 13:53:00,45.3,39.2,30.09,NNW,337,0.7,1.8,79,0.00,,,0.00,WUHU21623XXSP,2013-11-21 19:53:00,
2013-11-21 13:58:00,45.5,39.4,30.10,North,0,0.0,1.8,79,0.00,,,0.00,WUHU21623XXSP,2013-11-21 19:58:00,
2013-11-21 14:03:00,45.5,39.4,30.09,North,0,0.0,2.7,79,0.00,,,0.00,WUHU21623XXSP,2013-11-21 20:03:00,
2013-11-21 14:08:00,45.3,39.2,30.10,North,0,2.5,2.7,79,0.00,,,0.00,WUHU21623XXSP,2013-11-21 20:08:00,
2013-11-21 14:13:00,45.3,38.9,30.10,North,0,0.0,2.5,78,0.00,,,0.00,WUHU21623XXSP,2013-11-21 20:13:00,
2013-11-21 14:18:00,45.5,39.4,30.10,NNE,22,0.0,0.0,79,0.00,,,0.00,WUHU21623XXSP,2013-11-21 20:18:00,
2013-11-21 14:23:00,45.5,39.1,30.11,NNW,337,0.0,0.0,78,0.00,,,0.00,WUHU21623XXSP,2013-11-21 20:23:00,
2013-11-21 14:28:00,45.7,39.2,30.11,NNW,337,3.4,3.4,78,0.00,,,0.00,WUHU21623XXSP,2013-11-21 20:28:00,
2013-11-21 14:33:00,45.7,39.2,30.10,NNW,337,0.7,3.4,78,0.00,,,0.00,WUHU21623XXSP,2013-11-21 20:33:00,
2013-11-21 14:38:00,45.9,39.4,30.10,NNE,22,0.0,0.7,78,0.00,,,0.00,WUHU21623XXSP,2013-11-21 20:38:00,
2013-11-21 14:43:00,45.7,39.2,30.10,NW,315,0.7,0.7,78,0.00,,,0.00,WUHU21623XXSP,2013-11-21 20:43:00,
2013-11-21 14:48:00,45.7,39.2,30.10,North,0,0.0,0.7,78,0.00,,,0.00,WUHU21623XXSP,2013-11-21 20:48:00,
2013-11-21 14:53:00,45.5,39.1,30.10,North,0,0.0,0.0,78,0.00,,,0.00,WUHU21623XXSP,2013-11-21 20:53:00,
2013-11-21 14:58:00,45.5,39.1,30.10,North,0,0.0,0.0,78,0.00,,,0.00,WUHU21623XXSP,2013-11-21 20:58:00,
2013-11-21 15:03:00,45.3,39.2,30.12,WNW,292,0.0,0.0,79,0.00,,,0.00,WUHU21623XXSP,2013-11-21 21:03:00,
2013-11-21 15:08:00,45.3,38.9,30.11,NNW,337,0.0,1.3,78,0.00,,,0.00,WUHU21623XXSP,2013-11-21 21:08:00,
2013-11-21 15:13:00,45.3,38.9,30.11,NNW,337,1.6,1.6,78,0.00,,,0.00,WUHU21623XXSP,2013-11-21 21:13:00,
2013-11-21 15:18:00,45.1,38.7,30.12,North,0,0.0,1.6,78,0.00,,,0.00,WUHU21623XXSP,2013-11-21 21:18:00,
2013-11-21 15:23:00,45.3,39.2,30.12,NNW,337,0.0,0.9,79,0.00,,,0.00,WUHU21623XXSP,2013-11-21 21:23:00,
2013-11-21 15:28:00,45.3,39.2,30.12,NNW,337,0.0,0.4,79,0.00,,,0.00,WUHU21623XXSP,2013-11-21 21:28:00,
2013-11-21 15:33:00,45.1,39.0,30.12,NNW,337,0.0,1.1,79,0.00,,,0.00,WUHU21623XXSP,2013-11-21 21:33:00,
2013-11-21 15:38:00,45.1,39.0,30.12,North,0,0.0,3.6,79,0.00,,,0.00,WUHU21623XXSP,2013-11-21 21:38:00,
2013-11-21 15:43:00,45.0,38.9,30.12,North,0,0.0,4.7,79,0.00,,,0.00,WUHU21623XXSP,2013-11-21 21:43:00,
2013-11-21 15:48:00,45.0,38.9,30.12,North,0,0.0,4.7,79,0.00,,,0.00,WUHU21623XXSP,2013-11-21 21:48:00,
2013-11-21 15:53:00,45.0,38.9,30.12,North,0,1.6,1.8,79,0.00,,,0.00,WUHU21623XXSP,2013-11-21 21:53:00,
2013-11-21 15:58:00,44.8,38.7,30.12,NNW,337,0.0,4.0,79,0.00,,,0.00,WUHU21623XXSP,2013-11-21 21:58:00,
2013-11-21 16:03:00,44.6,38.5,30.13,North,0,3.6,4.0,79,0.00,,,0.00,WUHU21623XXSP,2013-11-21 22:03:00,
2013-11-21 16:08:00,44.2,38.1,30.13,WNW,292,0.0,3.6,79,0.00,,,0.00,WUHU21623XXSP,2013-11-21 22:08:00,
2013-11-21 16:13:00,44.1,38.0,30.13,North,0,3.1,3.1,79,0.00,,,0.00,WUHU21623XXSP,2013-11-21 22:13:00,
2013-11-21 16:18:00,44.1,38.0,30.13,North,0,3.1,3.1,79,0.00,,,0.00,WUHU21623XXSP,2013-11-21 22:18:00,
2013-11-21 16:23:00,43.9,37.8,30.13,North,0,0.0,3.1,79,0.00,,,0.00,WUHU21623XXSP,2013-11-21 22:23:00,
2013-11-21 16:28:00,43.7,37.6,30.14,North,0,0.0,3.8,79,0.00,,,0.00,WUHU21623XXSP,2013-11-21 22:28:00,
2013-11-21 16:33:00,43.5,37.8,30.14,NNW,337,0.9,3.8,80,0.00,,,0.00,WUHU21623XXSP,2013-11-21 22:33:00,
2013-11-21 16:38:00,43.3,37.6,30.14,North,0,0.0,0.9,80,0.00,,,0.00,WUHU21623XXSP,2013-11-21 22:38:00,
2013-11-21 16:43:00,43.3,37.6,30.14,North,0,0.0,0.0,80,0.00,,,0.00,WUHU21623XXSP,2013-11-21 22:43:00,
2013-11-21 16:48:00,43.2,37.4,30.14,NNW,337,4.9,4.9,80,0.00,,,0.00,WUHU21623XXSP,2013-11-21 22:48:00,
2013-11-21 16:53:00,43.2,37.7,30.13,North,0,0.0,4.9,81,0.00,,,0.00,WUHU21623XXSP,2013-11-21 22:53:00,
2013-11-21 16:58:00,43.0,37.5,30.14,North,0,0.0,1.6,81,0.00,,,0.00,WUHU21623XXSP,2013-11-21 22:58:00,
2013-11-21 17:03:00,43.0,37.5,30.14,NW,315,0.0,1.6,81,0.00,,,0.00,WUHU21623XXSP,2013-11-21 23:03:00,
2013-11-21 17:08:00,42.8,37.3,30.14,North,0,4.9,4.9,81,0.00,,,0.00,WUHU21623XXSP,2013-11-21 23:08:00,
2013-11-21 17:13:00,42.8,37.3,30.14,North,0,3.4,4.9,81,0.00,,,0.00,WUHU21623XXSP,2013-11-21 23:13:00,
2013-11-21 17:18:00,42.4,37.0,30.14,NNE,22,2.9,4.7,81,0.00,,,0.00,WUHU21623XXSP,2013-11-21 23:18:00,
2013-11-21 17:23:00,42.4,37.0,30.14,NNW,337,3.1,4.7,81,0.00,,,0.00,WUHU21623XXSP,2013-11-21 23:23:00,
2013-11-21 17:28:00,42.4,37.0,30.14,North,0,0.0,3.1,81,0.00,,,0.00,WUHU21623XXSP,2013-11-21 23:28:00,
2013-11-21 17:33:00,42.4,37.0,30.15,West,270,0.0,2.0,81,0.00,,,0.00,WUHU21623XXSP,2013-11-21 23:33:00,
2013-11-21 17:38:00,42.4,37.0,30.15,North,0,0.4,0.9,81,0.00,,,0.00,WUHU21623XXSP,2013-11-21 23:38:00,
2013-11-21 17:43:00,42.4,37.3,30.15,North,0,2.2,2.7,82,0.00,,,0.00,WUHU21623XXSP,2013-11-21 23:43:00,
2013-11-21 17:48:00,42.3,37.1,30.15,NNE,22,0.0,2.7,82,0.00,,,0.00,WUHU21623XXSP,2013-11-21 23:48:00,
2013-11-21 17:53:00,42.3,37.1,30.15,North,0,0.7,0.7,82,0.00,,,0.00,WUHU21623XXSP,2013-11-21 23:53:00,
2013-11-21 17:58:00,42.3,37.1,30.15,North,0,0.9,0.9,82,0.00,,,0.00,WUHU21623XXSP,2013-11-21 23:58:00,
2013-11-21 18:03:00,42.3,37.1,30.16,North,0,2.9,2.9,82,0.00,,,0.00,WUHU21623XXSP,2013-11-22 00:03:00,
2013-11-21 18:08:00,42.1,36.9,30.16,North,0,0.0,2.9,82,0.00,,,0.00,WUHU21623XXSP,2013-11-22 00:08:00,
2013-11-21 18:13:00,42.1,36.9,30.16,North,0,0.0,1.8,82,0.00,,,0.00,WUHU21623XXSP,2013-11-22 00:13:00,
2013-11-21 18:18:00,41.9,36.8,30.16,North,0,1.8,2.2,82,0.00,,,0.00,WUHU21623XXSP,2013-11-22 00:18:00,
2013-11-21 18:23:00,41.9,36.8,30.17,NNW,337,2.9,2.9,82,0.00,,,0.00,WUHU21623XXSP,2013-11-22 00:23:00,
2013-11-21 18:28:00,41.9,36.8,30.17,NE,45,0.0,3.6,82,0.00,,,0.00,WUHU21623XXSP,2013-11-22 00:28:00,
2013-11-21 18:33:00,41.9,36.8,30.17,NNW,337,0.0,3.6,82,0.00,,,0.00,WUHU21623XXSP,2013-11-22 00:33:00,
2013-11-21 18:38:00,41.9,36.8,30.17,NNW,337,0.0,0.0,82,0.00,,,0.00,WUHU21623XXSP,2013-11-22 00:38:00,
2013-11-21 18:43:00,41.9,37.1,30.17,NNW,337,3.4,3.4,83,0.00,,,0.00,WUHU21623XXSP,2013-11-22 00:43:00,
2013-11-21 18:48:00,41.9,37.1,30.17,NNE,22,1.6,3.4,83,0.00,,,0.00,WUHU21623XXSP,2013-11-22 00:48:00,
2013-11-21 18:53:00,41.7,36.9,30.17,North,0,0.0,1.6,83,0.00,,,0.00,WUHU21623XXSP,2013-11-22 00:53:00,
2013-11-21 18:58:00,41.7,36.9,30.17,North,0,0.0,1.6,83,0.00,,,0.00,WUHU21623XXSP,2013-11-22 00:58:00,
2013-11-21 19:03:00,41.7,36.9,30.17,North,0,3.1,3.1,83,0.00,,,0.00,WUHU21623XXSP,2013-11-22 01:03:00,
2013-11-21 19:08:00,41.9,37.4,30.17,NNW,337,0.0,3.1,84,0.00,,,0.00,WUHU21623XXSP,2013-11-22 01:08:00,
2013-11-21 19:13:00,41.7,36.9,30.17,WNW,292,0.0,0.9,83,0.00,,,0.00,WUHU21623XXSP,2013-11-22 01:13:00,
2013-11-21 19:18:00,41.7,37.2,30.18,North,0,0.0,0.9,84,0.00,,,0.00,WUHU21623XXSP,2013-11-22 01:18:00,
2013-11-21 19:23:00,41.7,37.2,30.18,North,0,0.0,1.1,84,0.00,,,0.00,WUHU21623XXSP,2013-11-22 01:23:00,
2013-11-21 19:28:00,41.7,37.2,30.18,North,0,0.0,1.1,84,0.00,,,0.00,WUHU21623XXSP,2013-11-22 01:28:00,
2013-11-21 19:33:00,41.5,37.0,30.18,NNW,337,2.2,2.2,84,0.00,,,0.00,WUHU21623XXSP,2013-11-22 01:33:00,
2013-11-21 19:38:00,41.5,37.0,30.18,North,0,4.3,4.3,84,0.00,,,0.00,WUHU21623XXSP,2013-11-22 01:38:00,
2013-11-21 19:43:00,41.5,37.0,30.18,North,0,0.0,4.3,84,0.00,,,0.00,WUHU21623XXSP,2013-11-22 01:43:00,
2013-11-21 19:48:00,41.5,37.0,30.18,North,0,0.4,0.4,84,0.00,,,0.00,WUHU21623XXSP,2013-11-22 01:48:00,
2013-11-21 19:53:00,41.5,37.0,30.18,NW,315,0.0,0.4,84,0.00,,,0.00,WUHU21623XXSP,2013-11-22 01:53:00,
2013-11-21 19:58:00,41.5,37.0,30.18,North,0,0.0,0.0,84,0.00,,,0.00,WUHU21623XXSP,2013-11-22 01:58:00,
2013-11-21 20:03:00,41.5,37.0,30.18,North,0,0.0,0.0,84,0.00,,,0.00,WUHU21623XXSP,2013-11-22 02:03:00,
2013-11-21 20:08:00,41.5,37.0,30.19,NNW,337,0.0,0.0,84,0.00,,,0.00,WUHU21623XXSP,2013-11-22 02:08:00,
2013-11-21 20:09:00,41.5,37.0,30.19,NNW,337,0.0,0.0,84,0.00,,,0.00,WUHU21623XXSP,2013-11-22 02:09:00,
2013-11-21 20:14:00,41.5,37.0,30.19,North,0,0.0,0.0,84,0.00,,,0.00,WUHU21623XXSP,2013-11-22 02:14:00,
2013-11-21 20:19:00,41.4,36.8,30.19,NNW,337,0.0,0.0,84,0.00,,,0.00,WUHU21623XXSP,2013-11-22 02:19:00,
2013-11-21 20:24:00,41.4,36.8,30.19,North,0,0.0,0.0,84,0.00,,,0.00,WUHU21623XXSP,2013-11-22 02:24:00,
2013-11-21 20:29:00,41.4,36.8,30.19,NNE,22,0.0,0.0,84,0.00,,,0.00,WUHU21623XXSP,2013-11-22 02:29:00,
2013-11-21 20:34:00,41.4,37.1,30.19,NW,315,0.0,0.0,85,0.00,,,0.00,WUHU21623XXSP,2013-11-22 02:34:00,
2013-11-21 20:39:00,41.4,37.1,30.20,NNW,337,0.0,0.7,85,0.00,,,0.00,WUHU21623XXSP,2013-11-22 02:39:00,
2013-11-21 20:45:00,41.4,37.1,30.20,NNW,337,1.1,1.1,85,0.00,,,0.00,WUHU21623XXSP,2013-11-22 02:45:00,
2013-11-21 20:50:00,41.2,37.0,30.20,North,0,0.0,1.1,85,0.00,,,0.00,WUHU21623XXSP,2013-11-22 02:50:00,
2013-11-21 20:55:00,41.2,37.0,30.19,NE,45,0.0,0.7,85,0.00,,,0.00,WUHU21623XXSP,2013-11-22 02:55:00,
2013-11-21 21:00:00,41.2,37.0,30.19,NNW,337,0.0,0.7,85,0.00,,,0.00,WUHU21623XXSP,2013-11-22 03:00:00,
2013-11-21 21:05:00,41.2,37.0,30.19,North,0,0.0,1.8,85,0.00,,,0.00,WUHU21623XXSP,2013-11-22 03:05:00,
2013-11-21 21:10:00,41.2,37.0,30.19,NNW,337,0.0,1.8,85,0.00,,,0.00,WUHU21623XXSP,2013-11-22 03:10:00,
2013-11-21 21:15:00,41.2,37.0,30.19,NNE,22,1.3,1.3,85,0.00,,,0.00,WUHU21623XXSP,2013-11-22 03:15:00,
2013-11-21 21:20:00,41.2,37.0,30.19,NNE,22,0.0,1.3,85,0.00,,,0.00,WUHU21623XXSP,2013-11-22 03:20:00,
2013-11-21 21:25:00,41.2,37.0,30.19,North,0,0.9,0.9,85,0.00,,,0.00,WUHU21623XXSP,2013-11-22 03:25:00,
2013-11-21 21:30:00,41.2,37.0,30.20,NW,315,0.0,2.2,85,0.00,,,0.00,WUHU21623XXSP,2013-11-22 03:30:00,
2013-11-21 21:35:00,41.2,37.0,30.20,WNW,292,2.0,2.2,85,0.00,,,0.00,WUHU21623XXSP,2013-11-22 03:35:00,
2013-11-21 21:40:00,41.0,36.8,30.20,NNW,337,0.0,2.0,85,0.00,,,0.00,WUHU21623XXSP,2013-11-22 03:40:00,
2013-11-21 21:45:00,41.0,36.8,30.20,North,0,0.2,0.2,85,0.00,,,0.00,WUHU21623XXSP,2013-11-22 03:45:00,
2013-11-21 21:50:00,40.8,36.6,30.19,NNW,337,1.8,1.8,85,0.00,,,0.00,WUHU21623XXSP,2013-11-22 03:50:00,
2013-11-21 21:55:00,41.2,37.0,30.20,North,0,0.0,1.8,85,0.00,,,0.00,WUHU21623XXSP,2013-11-22 03:55:00,
2013-11-21 22:00:00,40.6,36.4,30.20,North,0,0.0,0.0,85,0.00,,,0.00,WUHU21623XXSP,2013-11-22 04:00:00,
2013-11-21 22:05:00,40.6,36.7,30.20,NNW,337,0.7,0.7,86,0.00,,,0.00,WUHU21623XXSP,2013-11-22 04:05:00,
2013-11-21 22:10:00,40.8,36.9,30.20,NW,315,0.0,0.7,86,0.00,,,0.00,WUHU21623XXSP,2013-11-22 04:10:00,
2013-11-21 22:15:00,40.8,36.9,30.20,NNW,337,2.9,2.9,86,0.00,,,0.00,WUHU21623XXSP,2013-11-22 04:15:00,
2013-11-21 22:20:00,40.8,36.9,30.20,NNW,337,0.0,2.9,86,0.00,,,0.00,WUHU21623XXSP,2013-11-22 04:20:00,
2013-11-21 22:25:00,40.6,36.7,30.20,North,0,0.0,1.1,86,0.00,,,0.00,WUHU21623XXSP,2013-11-22 04:25:00,
2013-11-21 22:30:00,40.6,36.7,30.20,NE,45,0.0,4.3,86,0.00,,,0.00,WUHU21623XXSP,2013-11-22 04:30:00,
2013-11-21 22:35:00,40.6,36.7,30.19,NNE,22,2.9,4.3,86,0.00,,,0.00,WUHU21623XXSP,2013-11-22 04:35:00,
2013-11-21 22:40:00,40.6,36.7,30.19,North,0,1.1,3.1,86,0.00,,,0.00,WUHU21623XXSP,2013-11-22 04:40:00,
2013-11-21 22:45:00,40.6,36.7,30.20,NW,315,0.0,1.1,86,0.00,,,0.00,WUHU21623XXSP,2013-11-22 04:45:00,
2013-11-21 22:50:00,40.6,36.7,30.20,NNW,337,5.6,5.6,86,0.00,,,0.00,WUHU21623XXSP,2013-11-22 04:50:00,
2013-11-21 22:55:00,40.6,36.7,30.20,NNW,337,0.0,5.6,86,0.00,,,0.00,WUHU21623XXSP,2013-11-22 04:55:00,
2013-11-21 23:00:00,40.6,36.7,30.20,North,0,0.0,2.9,86,0.00,,,0.00,WUHU21623XXSP,2013-11-22 05:00:00,
2013-11-21 23:01:00,40.6,36.7,30.20,North,0,0.0,2.9,86,0.00,,,0.00,WUHU21623XXSP,2013-11-22 05:01:00,
2013-11-21 23:06:00,40.6,36.7,30.20,NNW,337,0.0,2.9,86,0.00,,,0.00,WUHU21623XXSP,2013-11-22 05:06:00,
2013-11-21 23:11:00,40.5,36.6,30.21,NNW,337,0.0,2.0,86,0.00,,,0.00,WUHU21623XXSP,2013-11-22 05:11:00,
2013-11-21 23:16:00,40.5,36.6,30.21,North,0,2.2,2.2,86,0.00,,,0.00,WUHU21623XXSP,2013-11-22 05:16:00,
2013-11-21 23:21:00,40.3,36.4,30.20,NNW,337,2.2,2.2,86,0.00,,,0.00,WUHU21623XXSP,2013-11-22 05:21:00,
2013-11-21 23:26:00,40.3,36.4,30.21,NNE,22,0.0,2.2,86,0.00,,,0.00,WUHU21623XXSP,2013-11-22 05:26:00,
2013-11-21 23:31:00,40.1,36.2,30.21,North,0,7.2,7.2,86,0.00,,,0.00,WUHU21623XXSP,2013-11-22 05:31:00,
2013-11-21 23:36:00,39.9,36.0,30.21,North,0,0.0,7.2,86,0.00,,,0.00,WUHU21623XXSP,2013-11-22 05:36:00,
2013-11-21 23:41:00,40.1,36.2,30.21,North,0,2.2,5.8,86,0.00,,,0.00,WUHU21623XXSP,2013-11-22 05:41:00,
2013-11-21 23:46:00,39.9,36.0,30.21,North,0,0.0,2.9,86,0.00,,,0.00,WUHU21623XXSP,2013-11-22 05:46:00,
2013-11-21 23:51:00,39.9,36.0,30.21,NNW,337,0.0,2.9,86,0.00,,,0.00,WUHU21623XXSP,2013-11-22 05:51:00,
2013-11-21 23:56:00,39.9,36.0,30.21,North,0,0.0,0.0,86,0.00,,,0.00,WUHU21623XXSP,2013-11-22 05:56:00,